<?xml version="1.0"?>
<gpx xmlns="http://www.topografix.com/GPX/1/1" xmlns:xsi="http://www.w3.org/2001/XMLSchema-instance" version="1.1" creator="GPX RubyGem 1.0.0 -- http://dougfales.github.io/gpx/" xsi:schemaLocation="http://www.topografix.com/GPX/1/1 http://www.topografix.com/GPX/1/1/gpx.xsd">
  <metadata>
    <name/>
    <time>2026-05-08T16:32:40+00:00</time>
    <bound minlat="90.0" minlon="180.0" maxlat="-90.0" maxlon="-180.0"/>
  </metadata>
  <trk>
    <name/>
    <trkseg>
      <trkpt lat="42.73717" lon="2.481719">
        <time>1970-01-01T00:00:00+00:00</time>
        <ele>298.0</ele>
      </trkpt>
      <trkpt lat="42.737199" lon="2.481708">
        <time>1970-01-01T00:00:00+00:00</time>
        <ele>297.0</ele>
      </trkpt>
      <trkpt lat="42.737231" lon="2.481647">
        <time>1970-01-01T00:00:00+00:00</time>
        <ele>297.0</ele>
      </trkpt>
      <trkpt lat="42.737324" lon="2.481618">
        <time>1970-01-01T00:00:00+00:00</time>
        <ele>296.0</ele>
      </trkpt>
      <trkpt lat="42.737235" lon="2.481867">
        <time>1970-01-01T00:00:00+00:00</time>
        <ele>296.0</ele>
      </trkpt>
      <trkpt lat="42.737036" lon="2.48253">
        <time>1970-01-01T00:00:00+00:00</time>
        <ele>300.0</ele>
      </trkpt>
      <trkpt lat="42.736928" lon="2.482818">
        <time>1970-01-01T00:00:00+00:00</time>
        <ele>303.0</ele>
      </trkpt>
      <trkpt lat="42.736819" lon="2.483018">
        <time>1970-01-01T00:00:00+00:00</time>
        <ele>307.0</ele>
      </trkpt>
      <trkpt lat="42.736713" lon="2.483626">
        <time>1970-01-01T00:00:00+00:00</time>
        <ele>315.0</ele>
      </trkpt>
      <trkpt lat="42.736691" lon="2.484102">
        <time>1970-01-01T00:00:00+00:00</time>
        <ele>319.0</ele>
      </trkpt>
      <trkpt lat="42.736719" lon="2.484162">
        <time>1970-01-01T00:00:00+00:00</time>
        <ele>320.0</ele>
      </trkpt>
      <trkpt lat="42.7368" lon="2.484234">
        <time>1970-01-01T00:00:00+00:00</time>
        <ele>319.0</ele>
      </trkpt>
      <trkpt lat="42.736973" lon="2.484499">
        <time>1970-01-01T00:00:00+00:00</time>
        <ele>319.0</ele>
      </trkpt>
      <trkpt lat="42.737214" lon="2.484907">
        <time>1970-01-01T00:00:00+00:00</time>
        <ele>319.0</ele>
      </trkpt>
      <trkpt lat="42.737329" lon="2.485172">
        <time>1970-01-01T00:00:00+00:00</time>
        <ele>318.0</ele>
      </trkpt>
      <trkpt lat="42.737377" lon="2.485347">
        <time>1970-01-01T00:00:00+00:00</time>
        <ele>317.0</ele>
      </trkpt>
      <trkpt lat="42.737386" lon="2.485617">
        <time>1970-01-01T00:00:00+00:00</time>
        <ele>317.0</ele>
      </trkpt>
      <trkpt lat="42.737332" lon="2.485751">
        <time>1970-01-01T00:00:00+00:00</time>
        <ele>320.0</ele>
      </trkpt>
      <trkpt lat="42.737307" lon="2.48593">
        <time>1970-01-01T00:00:00+00:00</time>
        <ele>322.0</ele>
      </trkpt>
      <trkpt lat="42.737165" lon="2.486543">
        <time>1970-01-01T00:00:00+00:00</time>
        <ele>325.0</ele>
      </trkpt>
      <trkpt lat="42.737108" lon="2.486549">
        <time>1970-01-01T00:00:00+00:00</time>
        <ele>328.0</ele>
      </trkpt>
      <trkpt lat="42.737081" lon="2.486501">
        <time>1970-01-01T00:00:00+00:00</time>
        <ele>329.0</ele>
      </trkpt>
      <trkpt lat="42.737112" lon="2.486315">
        <time>1970-01-01T00:00:00+00:00</time>
        <ele>329.0</ele>
      </trkpt>
      <trkpt lat="42.737099" lon="2.486092">
        <time>1970-01-01T00:00:00+00:00</time>
        <ele>331.0</ele>
      </trkpt>
      <trkpt lat="42.737046" lon="2.485924">
        <time>1970-01-01T00:00:00+00:00</time>
        <ele>335.0</ele>
      </trkpt>
      <trkpt lat="42.736918" lon="2.485713">
        <time>1970-01-01T00:00:00+00:00</time>
        <ele>340.0</ele>
      </trkpt>
      <trkpt lat="42.736865" lon="2.485575">
        <time>1970-01-01T00:00:00+00:00</time>
        <ele>340.0</ele>
      </trkpt>
      <trkpt lat="42.736807" lon="2.485502">
        <time>1970-01-01T00:00:00+00:00</time>
        <ele>343.0</ele>
      </trkpt>
      <trkpt lat="42.736768" lon="2.485539">
        <time>1970-01-01T00:00:00+00:00</time>
        <ele>345.0</ele>
      </trkpt>
      <trkpt lat="42.736759" lon="2.485629">
        <time>1970-01-01T00:00:00+00:00</time>
        <ele>346.0</ele>
      </trkpt>
      <trkpt lat="42.736896" lon="2.485918">
        <time>1970-01-01T00:00:00+00:00</time>
        <ele>342.0</ele>
      </trkpt>
      <trkpt lat="42.7369" lon="2.48605">
        <time>1970-01-01T00:00:00+00:00</time>
        <ele>341.0</ele>
      </trkpt>
      <trkpt lat="42.73679" lon="2.48679">
        <time>1970-01-01T00:00:00+00:00</time>
        <ele>339.0</ele>
      </trkpt>
      <trkpt lat="42.736706" lon="2.486958">
        <time>1970-01-01T00:00:00+00:00</time>
        <ele>339.0</ele>
      </trkpt>
      <trkpt lat="42.736547" lon="2.487163">
        <time>1970-01-01T00:00:00+00:00</time>
        <ele>341.0</ele>
      </trkpt>
      <trkpt lat="42.736428" lon="2.487271">
        <time>1970-01-01T00:00:00+00:00</time>
        <ele>346.0</ele>
      </trkpt>
      <trkpt lat="42.736405" lon="2.487349">
        <time>1970-01-01T00:00:00+00:00</time>
        <ele>348.0</ele>
      </trkpt>
      <trkpt lat="42.736419" lon="2.487416">
        <time>1970-01-01T00:00:00+00:00</time>
        <ele>349.0</ele>
      </trkpt>
      <trkpt lat="42.73656" lon="2.487524">
        <time>1970-01-01T00:00:00+00:00</time>
        <ele>349.0</ele>
      </trkpt>
      <trkpt lat="42.736702" lon="2.487686">
        <time>1970-01-01T00:00:00+00:00</time>
        <ele>350.0</ele>
      </trkpt>
      <trkpt lat="42.736781" lon="2.487903">
        <time>1970-01-01T00:00:00+00:00</time>
        <ele>352.0</ele>
      </trkpt>
      <trkpt lat="42.736794" lon="2.488197">
        <time>1970-01-01T00:00:00+00:00</time>
        <ele>355.0</ele>
      </trkpt>
      <trkpt lat="42.736781" lon="2.488727">
        <time>1970-01-01T00:00:00+00:00</time>
        <ele>361.0</ele>
      </trkpt>
      <trkpt lat="42.736843" lon="2.488895">
        <time>1970-01-01T00:00:00+00:00</time>
        <ele>360.0</ele>
      </trkpt>
      <trkpt lat="42.736878" lon="2.489388">
        <time>1970-01-01T00:00:00+00:00</time>
        <ele>362.0</ele>
      </trkpt>
      <trkpt lat="42.736861" lon="2.489581">
        <time>1970-01-01T00:00:00+00:00</time>
        <ele>361.0</ele>
      </trkpt>
      <trkpt lat="42.73679" lon="2.489773">
        <time>1970-01-01T00:00:00+00:00</time>
        <ele>359.0</ele>
      </trkpt>
      <trkpt lat="42.73645" lon="2.490116">
        <time>1970-01-01T00:00:00+00:00</time>
        <ele>366.0</ele>
      </trkpt>
      <trkpt lat="42.736388" lon="2.490224">
        <time>1970-01-01T00:00:00+00:00</time>
        <ele>368.0</ele>
      </trkpt>
      <trkpt lat="42.736481" lon="2.490639">
        <time>1970-01-01T00:00:00+00:00</time>
        <ele>367.0</ele>
      </trkpt>
      <trkpt lat="42.736423" lon="2.490742">
        <time>1970-01-01T00:00:00+00:00</time>
        <ele>366.0</ele>
      </trkpt>
      <trkpt lat="42.736167" lon="2.490862">
        <time>1970-01-01T00:00:00+00:00</time>
        <ele>372.0</ele>
      </trkpt>
      <trkpt lat="42.736114" lon="2.490964">
        <time>1970-01-01T00:00:00+00:00</time>
        <ele>374.0</ele>
      </trkpt>
      <trkpt lat="42.73611" lon="2.491241">
        <time>1970-01-01T00:00:00+00:00</time>
        <ele>374.0</ele>
      </trkpt>
      <trkpt lat="42.736017" lon="2.491554">
        <time>1970-01-01T00:00:00+00:00</time>
        <ele>375.0</ele>
      </trkpt>
      <trkpt lat="42.735544" lon="2.492329">
        <time>1970-01-01T00:00:00+00:00</time>
        <ele>376.0</ele>
      </trkpt>
      <trkpt lat="42.735456" lon="2.492389">
        <time>1970-01-01T00:00:00+00:00</time>
        <ele>375.0</ele>
      </trkpt>
      <trkpt lat="42.73516" lon="2.492414">
        <time>1970-01-01T00:00:00+00:00</time>
        <ele>385.0</ele>
      </trkpt>
      <trkpt lat="42.735098" lon="2.492468">
        <time>1970-01-01T00:00:00+00:00</time>
        <ele>387.0</ele>
      </trkpt>
      <trkpt lat="42.73508" lon="2.492588">
        <time>1970-01-01T00:00:00+00:00</time>
        <ele>388.0</ele>
      </trkpt>
      <trkpt lat="42.73512" lon="2.492738">
        <time>1970-01-01T00:00:00+00:00</time>
        <ele>388.0</ele>
      </trkpt>
      <trkpt lat="42.735111" lon="2.492979">
        <time>1970-01-01T00:00:00+00:00</time>
        <ele>391.0</ele>
      </trkpt>
      <trkpt lat="42.735213" lon="2.493376">
        <time>1970-01-01T00:00:00+00:00</time>
        <ele>390.0</ele>
      </trkpt>
      <trkpt lat="42.735195" lon="2.493562">
        <time>1970-01-01T00:00:00+00:00</time>
        <ele>388.0</ele>
      </trkpt>
      <trkpt lat="42.735133" lon="2.493677">
        <time>1970-01-01T00:00:00+00:00</time>
        <ele>388.0</ele>
      </trkpt>
      <trkpt lat="42.734643" lon="2.49405">
        <time>1970-01-01T00:00:00+00:00</time>
        <ele>397.0</ele>
      </trkpt>
      <trkpt lat="42.734594" lon="2.49417">
        <time>1970-01-01T00:00:00+00:00</time>
        <ele>398.0</ele>
      </trkpt>
      <trkpt lat="42.734594" lon="2.494242">
        <time>1970-01-01T00:00:00+00:00</time>
        <ele>399.0</ele>
      </trkpt>
      <trkpt lat="42.734983" lon="2.494477">
        <time>1970-01-01T00:00:00+00:00</time>
        <ele>402.0</ele>
      </trkpt>
      <trkpt lat="42.735094" lon="2.494603">
        <time>1970-01-01T00:00:00+00:00</time>
        <ele>403.0</ele>
      </trkpt>
      <trkpt lat="42.735151" lon="2.494831">
        <time>1970-01-01T00:00:00+00:00</time>
        <ele>406.0</ele>
      </trkpt>
      <trkpt lat="42.735155" lon="2.495301">
        <time>1970-01-01T00:00:00+00:00</time>
        <ele>413.0</ele>
      </trkpt>
      <trkpt lat="42.735226" lon="2.495403">
        <time>1970-01-01T00:00:00+00:00</time>
        <ele>414.0</ele>
      </trkpt>
      <trkpt lat="42.735473" lon="2.495541">
        <time>1970-01-01T00:00:00+00:00</time>
        <ele>416.0</ele>
      </trkpt>
      <trkpt lat="42.735725" lon="2.495601">
        <time>1970-01-01T00:00:00+00:00</time>
        <ele>418.0</ele>
      </trkpt>
      <trkpt lat="42.73603" lon="2.495571">
        <time>1970-01-01T00:00:00+00:00</time>
        <ele>420.0</ele>
      </trkpt>
      <trkpt lat="42.736066" lon="2.495667">
        <time>1970-01-01T00:00:00+00:00</time>
        <ele>419.0</ele>
      </trkpt>
      <trkpt lat="42.73607" lon="2.495716">
        <time>1970-01-01T00:00:00+00:00</time>
        <ele>418.0</ele>
      </trkpt>
      <trkpt lat="42.736021" lon="2.495782">
        <time>1970-01-01T00:00:00+00:00</time>
        <ele>418.0</ele>
      </trkpt>
      <trkpt lat="42.735924" lon="2.495776">
        <time>1970-01-01T00:00:00+00:00</time>
        <ele>419.0</ele>
      </trkpt>
      <trkpt lat="42.735801" lon="2.495841">
        <time>1970-01-01T00:00:00+00:00</time>
        <ele>420.0</ele>
      </trkpt>
      <trkpt lat="42.73573" lon="2.495926">
        <time>1970-01-01T00:00:00+00:00</time>
        <ele>422.0</ele>
      </trkpt>
      <trkpt lat="42.735681" lon="2.496203">
        <time>1970-01-01T00:00:00+00:00</time>
        <ele>423.0</ele>
      </trkpt>
      <trkpt lat="42.735522" lon="2.49681">
        <time>1970-01-01T00:00:00+00:00</time>
        <ele>424.0</ele>
      </trkpt>
      <trkpt lat="42.735412" lon="2.497027">
        <time>1970-01-01T00:00:00+00:00</time>
        <ele>421.0</ele>
      </trkpt>
      <trkpt lat="42.73531" lon="2.497117">
        <time>1970-01-01T00:00:00+00:00</time>
        <ele>420.0</ele>
      </trkpt>
      <trkpt lat="42.735063" lon="2.497159">
        <time>1970-01-01T00:00:00+00:00</time>
        <ele>421.0</ele>
      </trkpt>
      <trkpt lat="42.734638" lon="2.49737">
        <time>1970-01-01T00:00:00+00:00</time>
        <ele>422.0</ele>
      </trkpt>
      <trkpt lat="42.734577" lon="2.49746">
        <time>1970-01-01T00:00:00+00:00</time>
        <ele>422.0</ele>
      </trkpt>
      <trkpt lat="42.73459" lon="2.497568">
        <time>1970-01-01T00:00:00+00:00</time>
        <ele>424.0</ele>
      </trkpt>
      <trkpt lat="42.734956" lon="2.497901">
        <time>1970-01-01T00:00:00+00:00</time>
        <ele>429.0</ele>
      </trkpt>
      <trkpt lat="42.735137" lon="2.498232">
        <time>1970-01-01T00:00:00+00:00</time>
        <ele>435.0</ele>
      </trkpt>
      <trkpt lat="42.735225" lon="2.498649">
        <time>1970-01-01T00:00:00+00:00</time>
        <ele>440.0</ele>
      </trkpt>
      <trkpt lat="42.735318" lon="2.498896">
        <time>1970-01-01T00:00:00+00:00</time>
        <ele>441.0</ele>
      </trkpt>
      <trkpt lat="42.735406" lon="2.498947">
        <time>1970-01-01T00:00:00+00:00</time>
        <ele>440.0</ele>
      </trkpt>
      <trkpt lat="42.735518" lon="2.498845">
        <time>1970-01-01T00:00:00+00:00</time>
        <ele>438.0</ele>
      </trkpt>
      <trkpt lat="42.735693" lon="2.49876">
        <time>1970-01-01T00:00:00+00:00</time>
        <ele>438.0</ele>
      </trkpt>
      <trkpt lat="42.736024" lon="2.498768">
        <time>1970-01-01T00:00:00+00:00</time>
        <ele>448.0</ele>
      </trkpt>
      <trkpt lat="42.736811" lon="2.498955">
        <time>1970-01-01T00:00:00+00:00</time>
        <ele>463.0</ele>
      </trkpt>
      <trkpt lat="42.736943" lon="2.499006">
        <time>1970-01-01T00:00:00+00:00</time>
        <ele>465.0</ele>
      </trkpt>
      <trkpt lat="42.737074" lon="2.498947">
        <time>1970-01-01T00:00:00+00:00</time>
        <ele>464.0</ele>
      </trkpt>
      <trkpt lat="42.737124" lon="2.499006">
        <time>1970-01-01T00:00:00+00:00</time>
        <ele>467.0</ele>
      </trkpt>
      <trkpt lat="42.73718" lon="2.498904">
        <time>1970-01-01T00:00:00+00:00</time>
        <ele>465.0</ele>
      </trkpt>
      <trkpt lat="42.737374" lon="2.498964">
        <time>1970-01-01T00:00:00+00:00</time>
        <ele>469.0</ele>
      </trkpt>
      <trkpt lat="42.737605" lon="2.499142">
        <time>1970-01-01T00:00:00+00:00</time>
        <ele>474.0</ele>
      </trkpt>
      <trkpt lat="42.737923" lon="2.499491">
        <time>1970-01-01T00:00:00+00:00</time>
        <ele>479.0</ele>
      </trkpt>
      <trkpt lat="42.738236" lon="2.499755">
        <time>1970-01-01T00:00:00+00:00</time>
        <ele>481.0</ele>
      </trkpt>
      <trkpt lat="42.738373" lon="2.499968">
        <time>1970-01-01T00:00:00+00:00</time>
        <ele>482.0</ele>
      </trkpt>
      <trkpt lat="42.738411" lon="2.500061">
        <time>1970-01-01T00:00:00+00:00</time>
        <ele>480.0</ele>
      </trkpt>
      <trkpt lat="42.738649" lon="2.500225">
        <time>1970-01-01T00:00:00+00:00</time>
        <ele>478.0</ele>
      </trkpt>
      <trkpt lat="42.739003" lon="2.500387">
        <time>1970-01-01T00:00:00+00:00</time>
        <ele>476.0</ele>
      </trkpt>
      <trkpt lat="42.739188" lon="2.500441">
        <time>1970-01-01T00:00:00+00:00</time>
        <ele>474.0</ele>
      </trkpt>
      <trkpt lat="42.739846" lon="2.500117">
        <time>1970-01-01T00:00:00+00:00</time>
        <ele>458.0</ele>
      </trkpt>
      <trkpt lat="42.740134" lon="2.500014">
        <time>1970-01-01T00:00:00+00:00</time>
        <ele>447.0</ele>
      </trkpt>
      <trkpt lat="42.740456" lon="2.499918">
        <time>1970-01-01T00:00:00+00:00</time>
        <ele>441.0</ele>
      </trkpt>
      <trkpt lat="42.740668" lon="2.499984">
        <time>1970-01-01T00:00:00+00:00</time>
        <ele>439.0</ele>
      </trkpt>
      <trkpt lat="42.740968" lon="2.499984">
        <time>1970-01-01T00:00:00+00:00</time>
        <ele>439.0</ele>
      </trkpt>
      <trkpt lat="42.741401" lon="2.500213">
        <time>1970-01-01T00:00:00+00:00</time>
        <ele>442.0</ele>
      </trkpt>
      <trkpt lat="42.741887" lon="2.50061">
        <time>1970-01-01T00:00:00+00:00</time>
        <ele>447.0</ele>
      </trkpt>
      <trkpt lat="42.742258" lon="2.501031">
        <time>1970-01-01T00:00:00+00:00</time>
        <ele>450.0</ele>
      </trkpt>
      <trkpt lat="42.742629" lon="2.501362">
        <time>1970-01-01T00:00:00+00:00</time>
        <ele>448.0</ele>
      </trkpt>
      <trkpt lat="42.742775" lon="2.501584">
        <time>1970-01-01T00:00:00+00:00</time>
        <ele>442.0</ele>
      </trkpt>
      <trkpt lat="42.742859" lon="2.501819">
        <time>1970-01-01T00:00:00+00:00</time>
        <ele>435.0</ele>
      </trkpt>
      <trkpt lat="42.742929" lon="2.501931">
        <time>1970-01-01T00:00:00+00:00</time>
        <ele>432.0</ele>
      </trkpt>
      <trkpt lat="42.742929" lon="2.501931">
        <time>1970-01-01T00:00:00+00:00</time>
        <ele>432.0</ele>
      </trkpt>
      <trkpt lat="42.742859" lon="2.501819">
        <time>1970-01-01T00:00:00+00:00</time>
        <ele>435.0</ele>
      </trkpt>
      <trkpt lat="42.742775" lon="2.501584">
        <time>1970-01-01T00:00:00+00:00</time>
        <ele>442.0</ele>
      </trkpt>
      <trkpt lat="42.742629" lon="2.501362">
        <time>1970-01-01T00:00:00+00:00</time>
        <ele>448.0</ele>
      </trkpt>
      <trkpt lat="42.742258" lon="2.501031">
        <time>1970-01-01T00:00:00+00:00</time>
        <ele>450.0</ele>
      </trkpt>
      <trkpt lat="42.741887" lon="2.50061">
        <time>1970-01-01T00:00:00+00:00</time>
        <ele>447.0</ele>
      </trkpt>
      <trkpt lat="42.741401" lon="2.500213">
        <time>1970-01-01T00:00:00+00:00</time>
        <ele>442.0</ele>
      </trkpt>
      <trkpt lat="42.740968" lon="2.499984">
        <time>1970-01-01T00:00:00+00:00</time>
        <ele>439.0</ele>
      </trkpt>
      <trkpt lat="42.740668" lon="2.499984">
        <time>1970-01-01T00:00:00+00:00</time>
        <ele>439.0</ele>
      </trkpt>
      <trkpt lat="42.740456" lon="2.499918">
        <time>1970-01-01T00:00:00+00:00</time>
        <ele>441.0</ele>
      </trkpt>
      <trkpt lat="42.740134" lon="2.500014">
        <time>1970-01-01T00:00:00+00:00</time>
        <ele>447.0</ele>
      </trkpt>
      <trkpt lat="42.739846" lon="2.500117">
        <time>1970-01-01T00:00:00+00:00</time>
        <ele>458.0</ele>
      </trkpt>
      <trkpt lat="42.739188" lon="2.500441">
        <time>1970-01-01T00:00:00+00:00</time>
        <ele>474.0</ele>
      </trkpt>
      <trkpt lat="42.739003" lon="2.500387">
        <time>1970-01-01T00:00:00+00:00</time>
        <ele>476.0</ele>
      </trkpt>
      <trkpt lat="42.738649" lon="2.500225">
        <time>1970-01-01T00:00:00+00:00</time>
        <ele>478.0</ele>
      </trkpt>
      <trkpt lat="42.738411" lon="2.500061">
        <time>1970-01-01T00:00:00+00:00</time>
        <ele>480.0</ele>
      </trkpt>
      <trkpt lat="42.738373" lon="2.499968">
        <time>1970-01-01T00:00:00+00:00</time>
        <ele>482.0</ele>
      </trkpt>
      <trkpt lat="42.738236" lon="2.499755">
        <time>1970-01-01T00:00:00+00:00</time>
        <ele>481.0</ele>
      </trkpt>
      <trkpt lat="42.737923" lon="2.499491">
        <time>1970-01-01T00:00:00+00:00</time>
        <ele>479.0</ele>
      </trkpt>
      <trkpt lat="42.737605" lon="2.499142">
        <time>1970-01-01T00:00:00+00:00</time>
        <ele>474.0</ele>
      </trkpt>
      <trkpt lat="42.737374" lon="2.498964">
        <time>1970-01-01T00:00:00+00:00</time>
        <ele>469.0</ele>
      </trkpt>
      <trkpt lat="42.73718" lon="2.498904">
        <time>1970-01-01T00:00:00+00:00</time>
        <ele>465.0</ele>
      </trkpt>
      <trkpt lat="42.737124" lon="2.499006">
        <time>1970-01-01T00:00:00+00:00</time>
        <ele>467.0</ele>
      </trkpt>
      <trkpt lat="42.737074" lon="2.498947">
        <time>1970-01-01T00:00:00+00:00</time>
        <ele>464.0</ele>
      </trkpt>
      <trkpt lat="42.736943" lon="2.499006">
        <time>1970-01-01T00:00:00+00:00</time>
        <ele>465.0</ele>
      </trkpt>
      <trkpt lat="42.736811" lon="2.498955">
        <time>1970-01-01T00:00:00+00:00</time>
        <ele>463.0</ele>
      </trkpt>
      <trkpt lat="42.736024" lon="2.498768">
        <time>1970-01-01T00:00:00+00:00</time>
        <ele>448.0</ele>
      </trkpt>
      <trkpt lat="42.735693" lon="2.49876">
        <time>1970-01-01T00:00:00+00:00</time>
        <ele>438.0</ele>
      </trkpt>
      <trkpt lat="42.735518" lon="2.498845">
        <time>1970-01-01T00:00:00+00:00</time>
        <ele>438.0</ele>
      </trkpt>
      <trkpt lat="42.735406" lon="2.498947">
        <time>1970-01-01T00:00:00+00:00</time>
        <ele>440.0</ele>
      </trkpt>
      <trkpt lat="42.735318" lon="2.498896">
        <time>1970-01-01T00:00:00+00:00</time>
        <ele>441.0</ele>
      </trkpt>
      <trkpt lat="42.735225" lon="2.498649">
        <time>1970-01-01T00:00:00+00:00</time>
        <ele>440.0</ele>
      </trkpt>
      <trkpt lat="42.735137" lon="2.498232">
        <time>1970-01-01T00:00:00+00:00</time>
        <ele>435.0</ele>
      </trkpt>
      <trkpt lat="42.734956" lon="2.497901">
        <time>1970-01-01T00:00:00+00:00</time>
        <ele>429.0</ele>
      </trkpt>
      <trkpt lat="42.73459" lon="2.497568">
        <time>1970-01-01T00:00:00+00:00</time>
        <ele>424.0</ele>
      </trkpt>
      <trkpt lat="42.734577" lon="2.49746">
        <time>1970-01-01T00:00:00+00:00</time>
        <ele>422.0</ele>
      </trkpt>
      <trkpt lat="42.734638" lon="2.49737">
        <time>1970-01-01T00:00:00+00:00</time>
        <ele>422.0</ele>
      </trkpt>
      <trkpt lat="42.735063" lon="2.497159">
        <time>1970-01-01T00:00:00+00:00</time>
        <ele>421.0</ele>
      </trkpt>
      <trkpt lat="42.73531" lon="2.497117">
        <time>1970-01-01T00:00:00+00:00</time>
        <ele>420.0</ele>
      </trkpt>
      <trkpt lat="42.735412" lon="2.497027">
        <time>1970-01-01T00:00:00+00:00</time>
        <ele>421.0</ele>
      </trkpt>
      <trkpt lat="42.735522" lon="2.49681">
        <time>1970-01-01T00:00:00+00:00</time>
        <ele>424.0</ele>
      </trkpt>
      <trkpt lat="42.735681" lon="2.496203">
        <time>1970-01-01T00:00:00+00:00</time>
        <ele>423.0</ele>
      </trkpt>
      <trkpt lat="42.73573" lon="2.495926">
        <time>1970-01-01T00:00:00+00:00</time>
        <ele>422.0</ele>
      </trkpt>
      <trkpt lat="42.735801" lon="2.495841">
        <time>1970-01-01T00:00:00+00:00</time>
        <ele>420.0</ele>
      </trkpt>
      <trkpt lat="42.735924" lon="2.495776">
        <time>1970-01-01T00:00:00+00:00</time>
        <ele>419.0</ele>
      </trkpt>
      <trkpt lat="42.736021" lon="2.495782">
        <time>1970-01-01T00:00:00+00:00</time>
        <ele>418.0</ele>
      </trkpt>
      <trkpt lat="42.73607" lon="2.495716">
        <time>1970-01-01T00:00:00+00:00</time>
        <ele>418.0</ele>
      </trkpt>
      <trkpt lat="42.736066" lon="2.495667">
        <time>1970-01-01T00:00:00+00:00</time>
        <ele>419.0</ele>
      </trkpt>
      <trkpt lat="42.73603" lon="2.495571">
        <time>1970-01-01T00:00:00+00:00</time>
        <ele>420.0</ele>
      </trkpt>
      <trkpt lat="42.735725" lon="2.495601">
        <time>1970-01-01T00:00:00+00:00</time>
        <ele>418.0</ele>
      </trkpt>
      <trkpt lat="42.735473" lon="2.495541">
        <time>1970-01-01T00:00:00+00:00</time>
        <ele>416.0</ele>
      </trkpt>
      <trkpt lat="42.735226" lon="2.495403">
        <time>1970-01-01T00:00:00+00:00</time>
        <ele>414.0</ele>
      </trkpt>
      <trkpt lat="42.735155" lon="2.495301">
        <time>1970-01-01T00:00:00+00:00</time>
        <ele>413.0</ele>
      </trkpt>
      <trkpt lat="42.735151" lon="2.494831">
        <time>1970-01-01T00:00:00+00:00</time>
        <ele>406.0</ele>
      </trkpt>
      <trkpt lat="42.735094" lon="2.494603">
        <time>1970-01-01T00:00:00+00:00</time>
        <ele>403.0</ele>
      </trkpt>
      <trkpt lat="42.734983" lon="2.494477">
        <time>1970-01-01T00:00:00+00:00</time>
        <ele>402.0</ele>
      </trkpt>
      <trkpt lat="42.734594" lon="2.494242">
        <time>1970-01-01T00:00:00+00:00</time>
        <ele>399.0</ele>
      </trkpt>
      <trkpt lat="42.734594" lon="2.49417">
        <time>1970-01-01T00:00:00+00:00</time>
        <ele>398.0</ele>
      </trkpt>
      <trkpt lat="42.734643" lon="2.49405">
        <time>1970-01-01T00:00:00+00:00</time>
        <ele>397.0</ele>
      </trkpt>
      <trkpt lat="42.735133" lon="2.493677">
        <time>1970-01-01T00:00:00+00:00</time>
        <ele>388.0</ele>
      </trkpt>
      <trkpt lat="42.735195" lon="2.493562">
        <time>1970-01-01T00:00:00+00:00</time>
        <ele>388.0</ele>
      </trkpt>
      <trkpt lat="42.735213" lon="2.493376">
        <time>1970-01-01T00:00:00+00:00</time>
        <ele>390.0</ele>
      </trkpt>
      <trkpt lat="42.735111" lon="2.492979">
        <time>1970-01-01T00:00:00+00:00</time>
        <ele>391.0</ele>
      </trkpt>
      <trkpt lat="42.73512" lon="2.492738">
        <time>1970-01-01T00:00:00+00:00</time>
        <ele>388.0</ele>
      </trkpt>
      <trkpt lat="42.73508" lon="2.492588">
        <time>1970-01-01T00:00:00+00:00</time>
        <ele>388.0</ele>
      </trkpt>
      <trkpt lat="42.735098" lon="2.492468">
        <time>1970-01-01T00:00:00+00:00</time>
        <ele>387.0</ele>
      </trkpt>
      <trkpt lat="42.73516" lon="2.492414">
        <time>1970-01-01T00:00:00+00:00</time>
        <ele>385.0</ele>
      </trkpt>
      <trkpt lat="42.735456" lon="2.492389">
        <time>1970-01-01T00:00:00+00:00</time>
        <ele>375.0</ele>
      </trkpt>
      <trkpt lat="42.735544" lon="2.492329">
        <time>1970-01-01T00:00:00+00:00</time>
        <ele>376.0</ele>
      </trkpt>
      <trkpt lat="42.736017" lon="2.491554">
        <time>1970-01-01T00:00:00+00:00</time>
        <ele>375.0</ele>
      </trkpt>
      <trkpt lat="42.73611" lon="2.491241">
        <time>1970-01-01T00:00:00+00:00</time>
        <ele>374.0</ele>
      </trkpt>
      <trkpt lat="42.736114" lon="2.490964">
        <time>1970-01-01T00:00:00+00:00</time>
        <ele>374.0</ele>
      </trkpt>
      <trkpt lat="42.736167" lon="2.490862">
        <time>1970-01-01T00:00:00+00:00</time>
        <ele>372.0</ele>
      </trkpt>
      <trkpt lat="42.736423" lon="2.490742">
        <time>1970-01-01T00:00:00+00:00</time>
        <ele>366.0</ele>
      </trkpt>
      <trkpt lat="42.736481" lon="2.490639">
        <time>1970-01-01T00:00:00+00:00</time>
        <ele>367.0</ele>
      </trkpt>
      <trkpt lat="42.736388" lon="2.490224">
        <time>1970-01-01T00:00:00+00:00</time>
        <ele>368.0</ele>
      </trkpt>
      <trkpt lat="42.73645" lon="2.490116">
        <time>1970-01-01T00:00:00+00:00</time>
        <ele>366.0</ele>
      </trkpt>
      <trkpt lat="42.73679" lon="2.489773">
        <time>1970-01-01T00:00:00+00:00</time>
        <ele>359.0</ele>
      </trkpt>
      <trkpt lat="42.736861" lon="2.489581">
        <time>1970-01-01T00:00:00+00:00</time>
        <ele>361.0</ele>
      </trkpt>
      <trkpt lat="42.736878" lon="2.489388">
        <time>1970-01-01T00:00:00+00:00</time>
        <ele>362.0</ele>
      </trkpt>
      <trkpt lat="42.736843" lon="2.488895">
        <time>1970-01-01T00:00:00+00:00</time>
        <ele>360.0</ele>
      </trkpt>
      <trkpt lat="42.736781" lon="2.488727">
        <time>1970-01-01T00:00:00+00:00</time>
        <ele>361.0</ele>
      </trkpt>
      <trkpt lat="42.736794" lon="2.488197">
        <time>1970-01-01T00:00:00+00:00</time>
        <ele>355.0</ele>
      </trkpt>
      <trkpt lat="42.736781" lon="2.487903">
        <time>1970-01-01T00:00:00+00:00</time>
        <ele>352.0</ele>
      </trkpt>
      <trkpt lat="42.736702" lon="2.487686">
        <time>1970-01-01T00:00:00+00:00</time>
        <ele>350.0</ele>
      </trkpt>
      <trkpt lat="42.73656" lon="2.487524">
        <time>1970-01-01T00:00:00+00:00</time>
        <ele>349.0</ele>
      </trkpt>
      <trkpt lat="42.736419" lon="2.487416">
        <time>1970-01-01T00:00:00+00:00</time>
        <ele>349.0</ele>
      </trkpt>
      <trkpt lat="42.736405" lon="2.487349">
        <time>1970-01-01T00:00:00+00:00</time>
        <ele>348.0</ele>
      </trkpt>
      <trkpt lat="42.736428" lon="2.487271">
        <time>1970-01-01T00:00:00+00:00</time>
        <ele>346.0</ele>
      </trkpt>
      <trkpt lat="42.736547" lon="2.487163">
        <time>1970-01-01T00:00:00+00:00</time>
        <ele>341.0</ele>
      </trkpt>
      <trkpt lat="42.736706" lon="2.486958">
        <time>1970-01-01T00:00:00+00:00</time>
        <ele>339.0</ele>
      </trkpt>
      <trkpt lat="42.73679" lon="2.48679">
        <time>1970-01-01T00:00:00+00:00</time>
        <ele>339.0</ele>
      </trkpt>
      <trkpt lat="42.7369" lon="2.48605">
        <time>1970-01-01T00:00:00+00:00</time>
        <ele>341.0</ele>
      </trkpt>
      <trkpt lat="42.736896" lon="2.485918">
        <time>1970-01-01T00:00:00+00:00</time>
        <ele>342.0</ele>
      </trkpt>
      <trkpt lat="42.736759" lon="2.485629">
        <time>1970-01-01T00:00:00+00:00</time>
        <ele>346.0</ele>
      </trkpt>
      <trkpt lat="42.736768" lon="2.485539">
        <time>1970-01-01T00:00:00+00:00</time>
        <ele>345.0</ele>
      </trkpt>
      <trkpt lat="42.736807" lon="2.485502">
        <time>1970-01-01T00:00:00+00:00</time>
        <ele>343.0</ele>
      </trkpt>
      <trkpt lat="42.736865" lon="2.485575">
        <time>1970-01-01T00:00:00+00:00</time>
        <ele>340.0</ele>
      </trkpt>
      <trkpt lat="42.736918" lon="2.485713">
        <time>1970-01-01T00:00:00+00:00</time>
        <ele>340.0</ele>
      </trkpt>
      <trkpt lat="42.737046" lon="2.485924">
        <time>1970-01-01T00:00:00+00:00</time>
        <ele>335.0</ele>
      </trkpt>
      <trkpt lat="42.737099" lon="2.486092">
        <time>1970-01-01T00:00:00+00:00</time>
        <ele>331.0</ele>
      </trkpt>
      <trkpt lat="42.737112" lon="2.486315">
        <time>1970-01-01T00:00:00+00:00</time>
        <ele>329.0</ele>
      </trkpt>
      <trkpt lat="42.737081" lon="2.486501">
        <time>1970-01-01T00:00:00+00:00</time>
        <ele>329.0</ele>
      </trkpt>
      <trkpt lat="42.737108" lon="2.486549">
        <time>1970-01-01T00:00:00+00:00</time>
        <ele>328.0</ele>
      </trkpt>
      <trkpt lat="42.737165" lon="2.486543">
        <time>1970-01-01T00:00:00+00:00</time>
        <ele>325.0</ele>
      </trkpt>
      <trkpt lat="42.737307" lon="2.48593">
        <time>1970-01-01T00:00:00+00:00</time>
        <ele>322.0</ele>
      </trkpt>
      <trkpt lat="42.737332" lon="2.485751">
        <time>1970-01-01T00:00:00+00:00</time>
        <ele>320.0</ele>
      </trkpt>
      <trkpt lat="42.737386" lon="2.485617">
        <time>1970-01-01T00:00:00+00:00</time>
        <ele>317.0</ele>
      </trkpt>
      <trkpt lat="42.737377" lon="2.485347">
        <time>1970-01-01T00:00:00+00:00</time>
        <ele>317.0</ele>
      </trkpt>
      <trkpt lat="42.737329" lon="2.485172">
        <time>1970-01-01T00:00:00+00:00</time>
        <ele>318.0</ele>
      </trkpt>
      <trkpt lat="42.737214" lon="2.484907">
        <time>1970-01-01T00:00:00+00:00</time>
        <ele>319.0</ele>
      </trkpt>
      <trkpt lat="42.736973" lon="2.484499">
        <time>1970-01-01T00:00:00+00:00</time>
        <ele>319.0</ele>
      </trkpt>
      <trkpt lat="42.7368" lon="2.484234">
        <time>1970-01-01T00:00:00+00:00</time>
        <ele>319.0</ele>
      </trkpt>
      <trkpt lat="42.736719" lon="2.484162">
        <time>1970-01-01T00:00:00+00:00</time>
        <ele>320.0</ele>
      </trkpt>
      <trkpt lat="42.736691" lon="2.484102">
        <time>1970-01-01T00:00:00+00:00</time>
        <ele>319.0</ele>
      </trkpt>
      <trkpt lat="42.736713" lon="2.483626">
        <time>1970-01-01T00:00:00+00:00</time>
        <ele>315.0</ele>
      </trkpt>
      <trkpt lat="42.736819" lon="2.483018">
        <time>1970-01-01T00:00:00+00:00</time>
        <ele>307.0</ele>
      </trkpt>
      <trkpt lat="42.736928" lon="2.482818">
        <time>1970-01-01T00:00:00+00:00</time>
        <ele>303.0</ele>
      </trkpt>
      <trkpt lat="42.737036" lon="2.48253">
        <time>1970-01-01T00:00:00+00:00</time>
        <ele>300.0</ele>
      </trkpt>
      <trkpt lat="42.737235" lon="2.481867">
        <time>1970-01-01T00:00:00+00:00</time>
        <ele>296.0</ele>
      </trkpt>
      <trkpt lat="42.737324" lon="2.481618">
        <time>1970-01-01T00:00:00+00:00</time>
        <ele>296.0</ele>
      </trkpt>
      <trkpt lat="42.737231" lon="2.481647">
        <time>1970-01-01T00:00:00+00:00</time>
        <ele>297.0</ele>
      </trkpt>
      <trkpt lat="42.737199" lon="2.481708">
        <time>1970-01-01T00:00:00+00:00</time>
        <ele>297.0</ele>
      </trkpt>
      <trkpt lat="42.73717" lon="2.481719">
        <time>1970-01-01T00:00:00+00:00</time>
        <ele>298.0</ele>
      </trkpt>
    </trkseg>
  </trk>
</gpx>
